Бекдаш

Туркменистан     41°32′23″N   52°34′12″E
темп.,
°C
ветер,
м/с
пор.,
м/с
влажн.,
%
обл.,
%
осадки,
мм/ч
давл.,
гПа
погр.,
м
9 мая, вс
вс923:00+15юз22680 0.0 101811
02:00+15ююз33720 0.0 101720
05:00+14ю337694 0.0 101620
08:00+15ююв44750 0.0 101641
11:00+15ю44750 0.0 101537
14:00+16юз44790 0.0 101333
17:00+15ююз46830 0.0 101189
20:00+16ююв22825 0.0 100911
10 мая, пн
пн1023:00+16ю00785 0.0 101011
02:00+15сз558065 0.0 101139
05:00+15ссз6782100 0.0 101164
08:00+13ссз131694100 0.0 1013417
11:00+13ссз131589100 0.0 1015604
14:00+13ссз13148727 0.0 1016659
17:00+13сз1516855 0.0 1016658
20:00+13ссз1315830 0.0 1017562
11 мая, вт
вт1123:00+13ссз1113840 0.0 1019637
02:00+13сз810815 0.0 1019584
05:00+13сз77796 0.0 1019527
08:00+13сз5581100 0.0 1019395
11:00+13зсз558163 0.0 1019368
14:00+13з448073 0.0 1019411
17:00+14з44790 0.0 1019346
20:00+14з44780 0.0 1019329
12 мая, ср
ср1223:00+14зсз45815 0.0 1020142
02:00+14сз56823 0.0 1019193
05:00+14ссз458429 0.0 1019158
08:00+14с337526 0.0 101958
11:00+15з33700 0.0 101932
14:00+14зсз55785 0.0 101891
17:00+15сз67795 0.0 101689
20:00+15ссз79812 0.0 1015119
13 мая, чт
чт1323:00+15ссз69820 0.0 1016111
02:00+15сз68822 0.0 101575
05:00+15ссз46810 0.0 101550
08:00+17всв11700 0.0 101511
11:00+15сз44860 0.0 101737
14:00+15сз56896 0.0 101660
17:00+16ссз79875 0.0 101691
20:00+17ссз79730 0.0 101553